Location: The Saddle
(36.8333°N, 80.3417°W)
Time: 04:44:29
(UTC-04:00)

Vanguard 3 - Pass Details

Date: 23 February 2024
Orbit: 510 x 3234 km, 33.3° (Epoch: 24 April)

Event Time Altitude Azimuth Distance (km) Brightness Sun altitude
Rises 00:14:48 0° 267° (W) 7,186 12.0 -62.8°
Reaches altitude 10° 00:19:51 10° 266° (W) 6,063 11.5 -63.0°
Enters shadow 00:22:48 17° 266° (W) 5,387 11.2 -63.0°
